Year,Month,Day,Hour,Minute,Value (Times are PST for temperature in C)
2013,06,21,13,14,15.50
2013,06,21,13,15,15.50
2013,06,21,13,16,15.70
2013,06,21,13,17,15.80
2013,06,21,13,18,15.90
2013,06,21,13,19,16.00
2013,06,21,13,20,16.10
2013,06,21,13,21,16.20
2013,06,21,13,22,16.30
2013,06,21,13,23,16.30
2013,06,21,13,24,16.30
2013,06,21,13,25,16.20
2013,06,21,13,26,16.20
2013,06,21,13,27,16.10
2013,06,21,13,28,16.10
2013,06,21,13,29,16.10
2013,06,21,13,30,16.10
2013,06,21,13,31,16.00
2013,06,21,13,32,15.90
2013,06,21,13,33,15.90
2013,06,21,13,34,15.90
2013,06,21,13,35,16.00
2013,06,21,13,36,16.20
2013,06,21,13,37,16.20
2013,06,21,13,38,16.30
2013,06,21,13,39,16.40
2013,06,21,13,40,16.40
2013,06,21,13,41,16.50
2013,06,21,13,42,16.60
2013,06,21,13,43,16.60
2013,06,21,13,44,16.70
2013,06,21,13,45,16.80
2013,06,21,13,46,16.90
2013,06,21,13,47,16.90
2013,06,21,13,48,16.90
2013,06,21,13,49,16.90
2013,06,21,13,50,17.00
2013,06,21,13,51,16.90
2013,06,21,13,52,16.90
2013,06,21,13,53,16.80
2013,06,21,13,54,16.70
2013,06,21,13,55,16.70
2013,06,21,13,56,16.70
2013,06,21,13,57,16.70
2013,06,21,13,58,16.70
2013,06,21,13,59,16.80
2013,06,21,14,00,16.80
2013,06,21,14,01,16.80
2013,06,21,14,02,16.80
2013,06,21,14,03,16.80
2013,06,21,14,04,16.80
2013,06,21,14,05,16.80
2013,06,21,14,06,16.70
2013,06,21,14,07,16.70
2013,06,21,14,08,16.70
2013,06,21,14,09,16.60
2013,06,21,14,10,16.60
2013,06,21,14,11,16.70
2013,06,21,14,12,16.70
2013,06,21,14,13,16.70
2013,06,21,14,14,16.70
2013,06,21,14,15,16.70
2013,06,21,14,16,16.70
2013,06,21,14,17,16.70
2013,06,21,14,18,16.70
2013,06,21,14,19,16.70
2013,06,21,14,20,16.70
2013,06,21,14,21,16.80
2013,06,21,14,22,16.90
2013,06,21,14,23,17.00
2013,06,21,14,24,17.20
2013,06,21,14,25,17.30
2013,06,21,14,26,17.30
2013,06,21,14,27,17.30
2013,06,21,14,28,17.30
2013,06,21,14,29,17.30
2013,06,21,14,30,17.40
2013,06,21,14,31,17.40
2013,06,21,14,32,17.40
2013,06,21,14,33,17.40
2013,06,21,14,34,17.40
2013,06,21,14,35,17.40
2013,06,21,14,36,17.50
2013,06,21,14,37,17.60
2013,06,21,14,38,17.70
2013,06,21,14,39,17.80
2013,06,21,14,40,17.90
2013,06,21,14,41,18.10
2013,06,21,14,42,18.20
2013,06,21,14,43,18.20
2013,06,21,14,44,18.20
2013,06,21,14,45,18.20
2013,06,21,14,46,18.20
2013,06,21,14,47,18.10
2013,06,21,14,48,18.00
2013,06,21,14,49,17.90
2013,06,21,14,50,17.90
2013,06,21,14,51,17.70
2013,06,21,14,52,17.70
2013,06,21,14,53,17.60
2013,06,21,14,54,17.50
2013,06,21,14,55,17.40
2013,06,21,14,56,17.40
2013,06,21,14,57,17.40
2013,06,21,14,58,17.40
2013,06,21,14,59,17.30
2013,06,21,15,00,17.30
2013,06,21,15,01,17.30
2013,06,21,15,02,17.50
2013,06,21,15,03,17.70
2013,06,21,15,04,17.80
2013,06,21,15,05,17.90
2013,06,21,15,06,17.90
2013,06,21,15,07,17.90
2013,06,21,15,08,17.90
2013,06,21,15,09,17.90
2013,06,21,15,10,17.90
2013,06,21,15,11,17.90
2013,06,21,15,12,17.80
2013,06,21,15,13,17.70
2013,06,21,15,14,17.70
2013,06,21,15,15,17.60
2013,06,21,15,16,17.50
2013,06,21,15,17,17.60
2013,06,21,15,18,17.60
2013,06,21,15,19,17.60
2013,06,21,15,20,17.80
2013,06,21,15,21,17.90
2013,06,21,15,22,17.80
2013,06,21,15,23,17.80
2013,06,21,15,24,17.70
2013,06,21,15,25,17.60
2013,06,21,15,26,17.50
2013,06,21,15,27,17.50
2013,06,21,15,28,17.50
2013,06,21,15,29,17.50
2013,06,21,15,30,17.40
2013,06,21,15,31,17.50
2013,06,21,15,32,17.60
2013,06,21,15,33,17.60
2013,06,21,15,34,17.70
2013,06,21,15,35,17.80
2013,06,21,15,36,17.90
2013,06,21,15,37,17.90
2013,06,21,15,38,17.90
2013,06,21,15,39,17.90
2013,06,21,15,40,17.90
2013,06,21,15,41,18.00
2013,06,21,15,42,18.10
2013,06,21,15,43,18.20
2013,06,21,15,44,18.20
2013,06,21,15,45,18.20
2013,06,21,15,46,18.30
2013,06,21,15,47,18.20
2013,06,21,15,48,18.20
2013,06,21,15,49,18.10
2013,06,21,15,50,18.00
2013,06,21,15,51,17.90
2013,06,21,15,52,17.90
2013,06,21,15,53,17.80
2013,06,21,15,54,17.80
2013,06,21,15,55,17.80
2013,06,21,15,56,17.70
2013,06,21,15,57,17.80
2013,06,21,15,58,17.80
2013,06,21,15,59,17.80
2013,06,21,16,00,17.90
2013,06,21,16,01,17.90
2013,06,21,16,02,17.90
2013,06,21,16,03,17.90
2013,06,21,16,04,17.90
2013,06,21,16,05,17.90
2013,06,21,16,06,17.90
2013,06,21,16,07,17.90
2013,06,21,16,08,18.00
2013,06,21,16,09,18.10
2013,06,21,16,10,18.00
2013,06,21,16,11,17.90
2013,06,21,16,12,17.90
2013,06,21,16,13,17.90
2013,06,21,16,14,17.90
2013,06,21,16,15,18.00
2013,06,21,16,16,18.10
2013,06,21,16,17,18.10
2013,06,21,16,18,18.10
2013,06,21,16,19,18.10
2013,06,21,16,20,18.10
2013,06,21,16,21,18.10
2013,06,21,16,22,18.10
2013,06,21,16,23,18.10
2013,06,21,16,24,18.20
2013,06,21,16,25,18.20
2013,06,21,16,26,18.20
2013,06,21,16,27,18.20
2013,06,21,16,28,18.20
2013,06,21,16,29,18.20
2013,06,21,16,30,18.20
2013,06,21,16,31,18.20
2013,06,21,16,32,18.20
2013,06,21,16,33,18.20
2013,06,21,16,34,18.20
2013,06,21,16,35,18.20
2013,06,21,16,36,18.20
2013,06,21,16,37,18.20
2013,06,21,16,38,18.20
2013,06,21,16,39,18.20
2013,06,21,16,40,18.20
2013,06,21,16,41,18.30
2013,06,21,16,42,18.30
2013,06,21,16,43,18.30
2013,06,21,16,44,18.30
2013,06,21,16,45,18.30
2013,06,21,16,46,18.40
2013,06,21,16,47,18.40
2013,06,21,16,48,18.40
2013,06,21,16,49,18.40
2013,06,21,16,50,18.40
2013,06,21,16,51,18.40
2013,06,21,16,52,18.40
2013,06,21,16,53,18.40
2013,06,21,16,54,18.40
2013,06,21,16,55,18.30
2013,06,21,16,56,18.30
2013,06,21,16,57,18.30
2013,06,21,16,58,18.30
2013,06,21,16,59,18.20
2013,06,21,17,00,18.20
2013,06,21,17,01,18.10
2013,06,21,17,02,18.10
2013,06,21,17,03,18.10
2013,06,21,17,04,18.20
2013,06,21,17,05,18.20
2013,06,21,17,06,18.20
2013,06,21,17,07,18.20
2013,06,21,17,08,18.10
2013,06,21,17,09,18.10
2013,06,21,17,10,18.10
2013,06,21,17,11,18.10
2013,06,21,17,12,18.10
2013,06,21,17,13,18.10
2013,06,21,17,14,18.10
2013,06,21,17,15,18.10
2013,06,21,17,16,18.00
2013,06,21,17,17,17.90
2013,06,21,17,18,17.90
2013,06,21,17,19,17.90
2013,06,21,17,20,17.90
2013,06,21,17,21,17.90
2013,06,21,17,22,17.90
2013,06,21,17,23,17.90
2013,06,21,17,24,17.90
2013,06,21,17,25,17.90
2013,06,21,17,26,18.00
2013,06,21,17,27,18.10
2013,06,21,17,28,18.20
2013,06,21,17,29,18.20
2013,06,21,17,30,18.20
2013,06,21,17,31,18.20
2013,06,21,17,32,18.20
2013,06,21,17,33,18.20
2013,06,21,17,34,18.30
2013,06,21,17,35,18.40
2013,06,21,17,36,18.40
2013,06,21,17,37,18.40
2013,06,21,17,38,18.40
2013,06,21,17,39,18.40
2013,06,21,17,40,18.40
2013,06,21,17,41,18.40
2013,06,21,17,42,18.40
2013,06,21,17,43,18.40
2013,06,21,17,44,18.40
2013,06,21,17,45,18.50
2013,06,21,17,46,18.50
2013,06,21,17,47,18.40
2013,06,21,17,48,18.40
2013,06,21,17,49,18.40
2013,06,21,17,50,18.40
2013,06,21,17,51,18.40
2013,06,21,17,52,18.30
2013,06,21,17,53,18.30
2013,06,21,17,54,18.20
2013,06,21,17,55,18.20
2013,06,21,17,56,18.20
2013,06,21,17,57,18.20
2013,06,21,17,58,18.20
2013,06,21,17,59,18.20
2013,06,21,18,00,18.10
2013,06,21,18,01,18.10
2013,06,21,18,02,18.20
2013,06,21,18,03,18.30
2013,06,21,18,04,18.30
2013,06,21,18,05,18.20
2013,06,21,18,06,18.20
2013,06,21,18,07,18.20
2013,06,21,18,08,18.30
2013,06,21,18,09,18.30
2013,06,21,18,10,18.30
2013,06,21,18,11,18.30
2013,06,21,18,12,18.20
2013,06,21,18,13,18.20
2013,06,21,18,14,18.20
2013,06,21,18,15,18.20
2013,06,21,18,16,18.20
2013,06,21,18,17,18.20
2013,06,21,18,18,18.10
2013,06,21,18,19,18.00
2013,06,21,18,20,17.90
2013,06,21,18,21,17.90
2013,06,21,18,22,17.90
2013,06,21,18,23,17.80
2013,06,21,18,24,17.80
2013,06,21,18,25,17.70
2013,06,21,18,26,17.70
2013,06,21,18,27,17.60
2013,06,21,18,28,17.50
2013,06,21,18,29,17.50
2013,06,21,18,30,17.40
2013,06,21,18,31,17.40
2013,06,21,18,32,17.30
2013,06,21,18,33,17.30
2013,06,21,18,34,17.30
2013,06,21,18,35,17.30
2013,06,21,18,36,17.30
2013,06,21,18,37,17.30
2013,06,21,18,38,17.30
2013,06,21,18,39,17.30
2013,06,21,18,40,17.20
2013,06,21,18,41,17.20
2013,06,21,18,42,17.20
2013,06,21,18,43,17.30
2013,06,21,18,44,17.30
2013,06,21,18,45,17.20
2013,06,21,18,46,17.10
2013,06,21,18,47,17.10
2013,06,21,18,48,17.10
2013,06,21,18,49,17.10
2013,06,21,18,50,17.20
2013,06,21,18,51,17.10
2013,06,21,18,52,17.10
2013,06,21,18,53,17.10
2013,06,21,18,54,17.00
2013,06,21,18,55,17.00
2013,06,21,18,56,17.00
2013,06,21,18,57,16.90
2013,06,21,18,58,16.90
2013,06,21,18,59,16.90
2013,06,21,19,00,16.90
2013,06,21,19,01,16.80
2013,06,21,19,02,16.80
2013,06,21,19,03,16.80
2013,06,21,19,04,16.80
2013,06,21,19,05,16.80
2013,06,21,19,06,16.80
2013,06,21,19,07,16.80
2013,06,21,19,08,16.80
2013,06,21,19,09,16.80
2013,06,21,19,10,16.80
2013,06,21,19,11,16.70
2013,06,21,19,12,16.70
2013,06,21,19,13,16.70
2013,06,21,19,14,16.60
2013,06,21,19,15,16.60
2013,06,21,19,16,16.60
2013,06,21,19,17,16.60
2013,06,21,19,18,16.40
2013,06,21,19,19,16.40
2013,06,21,19,20,16.40
2013,06,21,19,21,16.40
2013,06,21,19,22,16.40
2013,06,21,19,23,16.40
2013,06,21,19,24,16.40
2013,06,21,19,25,16.40
2013,06,21,19,26,16.40
2013,06,21,19,27,16.40
2013,06,21,19,28,16.40
2013,06,21,19,29,16.40
2013,06,21,19,30,16.40
2013,06,21,19,31,16.40
2013,06,21,19,32,16.40
2013,06,21,19,33,16.40
2013,06,21,19,34,16.30
2013,06,21,19,35,16.30
2013,06,21,19,36,16.30
2013,06,21,19,37,16.30
2013,06,21,19,38,16.40
2013,06,21,19,39,16.40
2013,06,21,19,40,16.40
2013,06,21,19,41,16.40
2013,06,21,19,42,16.40
2013,06,21,19,43,16.40
2013,06,21,19,44,16.40
2013,06,21,19,45,16.40
2013,06,21,19,46,16.40
2013,06,21,19,47,16.40
2013,06,21,19,48,16.40
2013,06,21,19,49,16.40
2013,06,21,19,50,16.40
2013,06,21,19,51,16.40
2013,06,21,19,52,16.40
2013,06,21,19,53,16.40
2013,06,21,19,54,16.40
2013,06,21,19,55,16.40
2013,06,21,19,56,16.30
2013,06,21,19,57,16.30
2013,06,21,19,58,16.30
2013,06,21,19,59,16.20
2013,06,21,20,00,16.20
2013,06,21,20,01,16.20
2013,06,21,20,02,16.20
2013,06,21,20,03,16.20
2013,06,21,20,04,16.20
2013,06,21,20,05,16.20
2013,06,21,20,06,16.20
2013,06,21,20,07,16.20
2013,06,21,20,08,16.20
2013,06,21,20,09,16.20
2013,06,21,20,10,16.10
2013,06,21,20,11,16.10
2013,06,21,20,12,16.10
2013,06,21,20,13,16.10
2013,06,21,20,14,16.10
2013,06,21,20,15,16.10
2013,06,21,20,16,16.10
2013,06,21,20,17,16.10
2013,06,21,20,18,16.10
2013,06,21,20,19,16.10
2013,06,21,20,20,16.10
2013,06,21,20,21,16.10
2013,06,21,20,22,16.10
2013,06,21,20,23,16.00
2013,06,21,20,24,15.90
2013,06,21,20,25,15.90
2013,06,21,20,26,15.90
2013,06,21,20,27,15.90
2013,06,21,20,28,15.90
2013,06,21,20,29,15.80
2013,06,21,20,30,15.80
2013,06,21,20,31,15.80
2013,06,21,20,32,15.80
2013,06,21,20,33,15.80
2013,06,21,20,34,15.80
2013,06,21,20,35,15.80
2013,06,21,20,36,15.80
2013,06,21,20,37,15.80
2013,06,21,20,38,15.80
2013,06,21,20,39,15.80
2013,06,21,20,40,15.80
2013,06,21,20,41,15.80
2013,06,21,20,42,15.80
2013,06,21,20,43,15.80
2013,06,21,20,44,15.80
2013,06,21,20,45,15.80
2013,06,21,20,46,15.80
2013,06,21,20,47,15.80
2013,06,21,20,48,15.80
2013,06,21,20,49,15.80
2013,06,21,20,50,15.80
